Время (UTC), дата Ветер
(°,м/с) 
Видим.   Явления Облачность Т
(°С)
Тd
(°С)
f(%) Тe
(°С)
Pmin
(гПа)
dP
(гПа)
Po
(мм)
O2
(г/м3)
Тmin Tmax R s Состояние
почвы
00 01.02.16 170 (Ю) 20000 м    4/0 средняя 
[Ac trans]
+1.3 -4.2 67 -1  1018.6  -1.4  722  290           
03 01.02.16 тихо ()   20000 м    3/0 средняя 
[Ac trans]
+2.3 -5.6 56 +2  1017.8  -0.6  722  289  -0.2         
06 01.02.16 160 (Ю) 20000 м    10/3 1000 м средняя, верхняя 
[Sc|Ac trans|Ci sp]
+5.3 -4.1 51 +5  1016.5  -0.7  722  286           
09 01.02.16 190 (Ю) 20000 м    10/6 600 м средняя 
[Sc|Ac und]
+6.6 -3.2 50 +6  1014.2  -1.9  720  284           
12 01.02.16 150 (ЮВ) 20000 м    10/4 1000 м средняя 
[Sc|Ac und]
+6.6 -2.9 51 +8  1012.3  -1.8  719  283           
15 01.02.16 250 (З) 20000 м    10/4 1000 м средняя 
[Sc|Ac und]
+2.7 -2.3 70 +2  1012.5  -0.5  718  287    +7.3       
18 01.02.16 320 (СЗ) 20000 м    10/3 1000 м средняя 
[Sc|Ac und]
+4.9 -2.5 59 +4  1012.1  -0.1  718  285           
21 01.02.16 320 (СЗ) 10-14{16}  10 км  слаб. ливневой снег  10/6 100 м кучево-дожд., средняя 
[Cb cap|Ac und]
-0.9 -1.7 94 -6  1014.4  1.1  719  291           
00 02.02.16 310 (СЗ) 6{14}  2000 м  ливневой снег  10/8 100 м кучево-дожд., средняя 
[Cb cap|Ac und]
-1.2 -2.2 93 -5  1017.9  3.2  722  292           
03 02.02.16 280 (З) 10 км  слаб. ливневой снег  10/8 200 м кучево-дожд., средняя 
[Cb cap|Ac und]
-1.3 -2.2 94 -5  1020.5  2.4  723  293  -1.3    равномерный
мокрый или
старый снег
100% 
06 02.02.16 250 (З) 7-10{10}  3000 м  дымка{ливн. осадки, туман}  10/10 200 м 
[St]
-1.3 -2.1 94 -5  1023.3  2.6  725  294  -1.6         
09 02.02.16 270 (З) 7{11}  20000 м    8/5 300 м средняя 
[St|Ac trans]
+0.3 -2.6 81 -4  1025  1.9  727  293           
12 02.02.16 270 (З) 6{11}  20000 м    3/3 300 м 
[St]
+0.3 -2.5 81 -3  1025.4  0.4  727  293           
15 02.02.16 260 (З) 7{11}  20000 м    3/3 300 м 
[Sc]
-1.9 -4.5 82 -6  1027.3  1.3  728  296    +1.1  0.0     
18 02.02.16 250 (З) 6{11}  20000 м    ясно 
-0.2 -4.6 72 -4  1027.1  0.1  728  294           
21 02.02.16 250 (З) 7-10{11}  20000 м    3/0 средняя 
[Ac trans]
+1.7 -4.4 64 -2  1025.1  -1.5  727  292           
00 03.02.16 240 (ЮЗ) 4-10{13}  20000 м    6/0 средняя 
[Ac trans]
+2 -3.5 67 1024  -1  726  291           
03 03.02.16 220 (ЮЗ) 4{13}  20000 м    8/0 средняя 
[Ac trans]
+1.9 -3.5 67 1023.5  -0.5  726  291  -1.9      мокрый или
старый снег
10-40% 
06 03.02.16 210 (ЮЗ) 4{11}  20000 м    9/0 средняя 
[Ac As]
+5 -5.3 47 +3  1023  0.1  726  288           
09 03.02.16 250 (З) 9-13{13}  20000 м    6/0 средняя, верхняя 
[Ac trans|Ci fib]
+10.3 -4.4 35 +8  1020.8  -1.1  725  282           
12 03.02.16 240 (ЮЗ) 6{13}  20000 м    4/0 средняя 
[Ac trans]
+11.3 -4.3 33 +10  1019.1  -1.4  724  281           
15 03.02.16 170 (Ю) 20000 м    8/0 средняя 
[Ac trans]
+8.3 -2.8 45 +8  1018.9  -0.7  724  283    +11.5       
18 03.02.16 190 (Ю) 20000 м    8/0 средняя 
[Ac trans]
+6.3 -1.3 58 +5  1018.6  -0.7  723  285           
21 03.02.16 220 (ЮЗ) 20000 м    4/0 средняя 
[Ac trans]
+7.3 -2.7 49 +6  1017.4  -0.9  722  284           
00 04.02.16 180 (Ю) 20000 м    8/0 средняя 
[Ac As]
+6.4 -2.7 52 +7  1017.8  0.3  723  285           
03 04.02.16 130 (ЮВ) 20000 м    8/0 средняя 
[Ac trans]
+7.4 -2.6 49 +8  1017.7  723  284  +4.7         
06 04.02.16 220 (ЮЗ) 20000 м    9/0 средняя, верхняя 
[Ac trans|Ci fib]
+10.6 -1.1 44 +11  1017.2  0.1  723  280           
09 04.02.16 170 (Ю) 20000 м    9/0 средняя, верхняя 
[Ac trans|Ci fib]
+14.6 -1.9 32 +14  1015.1  -1.2  722  276           
12 04.02.16 020 (С) 20000 м    8/0 средняя 
[Ac trans]
+14.6 +0.9 39 +15  1014.1  -0.9  721  276           
15 04.02.16 150 (ЮВ) 20000 м    9/0 средняя 
[Ac trans]
+12.3 -0.9 40 +13  1014.4  -0.2  721  278    +17       
18 04.02.16 160 (Ю) 20000 м    5/0 средняя 
[Ac trans]
+9.6 -0.2 50 +9  1014  -0.9  720  280           
21 04.02.16 230 (ЮЗ) 20000 м    8/0 средняя 
[Ac trans]
+8.9 -0.2 53 +9  1014.2  720  281           
00 05.02.16 290 (З) 20000 м    9/0 средняя 
[Ac trans]
+11.2 -2.3 39 +10  1014.3  0.5  721  279           
03 05.02.16 260 (З) 20000 м    10/0 средняя, верхняя 
[Ac trans|Ci fib]
+10.4 -3.2 38 +9  1013.4  -1  720  280  +6.4         
06 05.02.16 260 (З) 20000 м    9/0 средняя, верхняя 
[Ac trans|Ci fib]
+10.1 -0.7 47 +9  1014.1  -1  721  280           
09 05.02.16 310 (СЗ) 20000 м    9/0 средняя, верхняя 
[Ac trans|Ci fib]
+13.2 +3.3 51 +13  1013.1  -0.3  720  276           
12 05.02.16 360 (С) 20000 м    10/0 средняя, верхняя 
[Ac trans|Cs]
+12.4 +3.5 55 +14  1012.1  -1.1  719  277           
15 05.02.16 010 (С) 20000 м    9/0 средняя 
[Ac trans]
+8.5 +4.9 78 +8  1012.8  0.1  719  280    +13.5       
18 05.02.16 050 (СВ) 10 км    8/4 600 м средняя 
[Sc|Ac trans]
+5.9 +4.7 92 +4  1012.6  -0.7  719  283           
21 05.02.16 120 (ЮВ) 0200 м  туман  ?/?  
+5 +4.2 95 +5  1011.6  -1  718  283           
00 06.02.16 120 (ЮВ) 0900 м  туман  ?/?  
+5.5 +4.8 95 +4  1011.3  -0.3  718  283           
03 06.02.16 110 (В) 2500 м  дымка{туман}  10/8 200 м средняя 
[St|Ac und]
+5.4 +4.7 95 +4  1011.1  -0.2  718  283  +4.1         
06 06.02.16 110 (В) 0200 м  туман  ?/?  
+5.4 +4.7 95 +4  1011.9  0.8  718  283           
09 06.02.16 110 (В) 10 км  {туман}  10/6 300 м средняя 
[Sc|Ac und]
+6.1 +5.3 95 +4  1011.2  -0.5  718  282           
12 06.02.16 070 (В) 10 км  {туман}  10/10 100 м 
[St]
+5.4 +4.2 92 +3  1011.4  718  283           
15 06.02.16 020 (С) 0200 м  слаб. морось{туман}  ?/?  
+1.6 +0.8 94 -1  1014.7  2.4  720  288    +6.8  0.0     
18 06.02.16 020 (С) 0200 м  слаб. дождь{туман}  ?/?  
+0.3 -0.4 95 -2  1016.7  1.6  721  290           
21 06.02.16 010 (С) 1200 м  слаб. снег{дождь}  10/10 100 м 
[Ns]
-2 -2.6 96 -5  1019.8  2.5  723  294           
00 07.02.16 010 (С) 2500 м  слаб. снег{дождь}  10/10 300 м 
[Ns]
-2.7 -3.5 94 -5  1022.4  2.3  725  295           
03 07.02.16 020 (С) 10 км  слаб. снег [диам. гололёда 1 мм]  10/10 200 м 
[Frnb|Ns]
-3.2 -4 94 -5  1024.8  2.1  726  296  -3.2    равномерный
сухой снег
100% 
06 07.02.16 020 (С) 20000 м  в посл. час снег [диам. гололёда 1 мм]  10/10 200 м 
[Frnb|Ns]
-3 -3.9 94 -4  1027.6  2.7  728  297  -3.3         
09 07.02.16 080 (В) 20000 м  [диам. гололёда 1 мм]  8/8 300 м 
[Sc]
-0.9 -2.9 86 -3  1028.1  2.1  729  295           
12 07.02.16 070 (В) 20000 м    8/8 600 м 
[Sc]
-0.4 -5.9 66 -3  1028.3  0.3  729  295           
15 07.02.16 060 (СВ) 20000 м    3/3 1000 м 
[Sc]
-3.1 -5.4 84 -6  1030.3  1.4  730  298    +0  0.2     
18 07.02.16 070 (В) 4000 м  дымка  10/10 200 м 
[St]
-4.8 -5.8 93 -8  1031.9  1.1  731  300           
21 07.02.16 090 (В) 3000 м  дымка{туман}  10/10 100 м 
[St]
-4.7 -5.7 93 -7  1032  0.2  731  300           
00 08.02.16 090 (В) 1500 м  дымка{туман} [диам. изморози 1 мм]  8/8 100 м 
[St]
-5.3 -6.3 93 -8  1031.8  -0.4  731  301           
03 08.02.16 080 (В) 1500 м  дымка{туман} [диам. изморози 6 мм]  10/10 100 м 
[St]
-4.6 -5.6 93 -8  1032.6  0.9  731  300  -5.9      мокрый или
старый снег
10-40% 
06 08.02.16 110 (В) 4000 м  дымка{туман} [диам. изморози 6 мм]  8/8 200 м 
[St]
-4.3 -5.3 93 -9  1033.5  0.9  732  300           
09 08.02.16 110 (В) 8-10{11}  20000 м  [диам. изморози 8 мм]  ясно 
-0.4 -4.6 73 -5  1032.4  -0.2  732  296           
12 08.02.16 100 (В) 8-10{11}  20000 м    4/4 600 м 
[Sc]
+0.7 -4.7 67 -3  1031.6  -0.5  732  295           
15 08.02.16 130 (ЮВ) 5{11}  20000 м    8/8 600 м 
[Sc]
-1.7 -5 78 -5  1032.7  0.5  732  297    +1.4       
18 08.02.16 130 (ЮВ) 20000 м    3/3 600 м 
[Sc]
-3 -6 80 -7  1033.3  0.3  732  299           
21 08.02.16 140 (ЮВ) 20000 м    ясно 
-4 -6.2 85 -8  1033.3  -0.2  732  300           
00 09.02.16 120 (ЮВ) 20000 м    ясно 
-4.7 -6.9 85 -9  1033  -0.5  732  301           
03 09.02.16 120 (ЮВ) 20000 м    ясно 
-5.2 -7.2 86 -9  1032.2  -0.8  731  301  -5.2         
06 09.02.16 130 (ЮВ) 20000 м    ясно 
-3 -6.8 75 -7  1032.1  0.4  731  299  -5.3         
09 09.02.16 140 (ЮВ) 7{13}  20000 м    ясно 
+1.7 -6.1 56 -2  1030.5  -0.6  731  293           
12 09.02.16 120 (ЮВ) 7-10{11}  20000 м    ясно 
+4.3 -8.6 38 +1  1028.7  -1.2  730  290           
15 09.02.16 110 (В) 6{11}  20000 м    ясно 
-0.6 -5.4 70 -4  1029.7  730  295    +4.4       
18 09.02.16 140 (ЮВ) 20000 м    ясно 
-1.8 -4.8 80 -5  1029.8  -0.2  730  297           
21 09.02.16 140 (ЮВ) 5{10}  20000 м    ясно 
-3.1 -5.5 83 -7  1029.1  -0.9  729  298           
00 10.02.16 140 (ЮВ) 6{10}  20000 м    ясно 
-4 -5.5 89 -8  1028.2  -1  728  298           
03 10.02.16 130 (ЮВ) 4000 м  дымка  10/10 100 м 
[St]
-4.3 -5.2 93 -9  1028  -0.3  728  299  -5         
06 10.02.16 130 (ЮВ) 4000 м  дымка{туман} [диам. изморози 2 мм]  10/10 200 м 
[St]
-3.7 -4.7 93 -8  1028  0.2  728  298           
09 10.02.16 120 (ЮВ) 7-10{10}  20000 м  [диам. изморози 2 мм]  10/10 200 м 
[St]
-2.1 -3.9 87 -6  1026.1  -1.4  727  296           
12 10.02.16 120 (ЮВ) 8-11{11}  20000 м    10/10 300 м 
[St]
-0.7 -3.8 79 -5  1024.4  -1.4  726  294           
15 10.02.16 130 (ЮВ) 4{13}  20000 м    3/3 300 м 
[Sc]
-1.8 -4.3 83 -5  1024.4  -0.2  726  295    -0.2       
18 10.02.16 130 (ЮВ) 20000 м    3/0 средняя 
[Ac trans]
-3.2 -4.6 90 -5  1023.8  -0.8  725  296           
21 10.02.16 130 (ЮВ) 20000 м    10/6 300 м средняя 
[Sc|Ac und]
-2.3 -3.5 91 -5  1022.1  -1.4  724  295           
00 11.02.16 130 (ЮВ) 20000 м    8/8 300 м 
[St]
-2.4 -3.6 91 -5  1020.6  -1.4  723  294           
03 11.02.16 140 (ЮВ) 20000 м    10/10 300 м 
[St]
-1.3 -2.6 91 -5  1019.7  -0.6  723  293  -3.5         
06 11.02.16 140 (ЮВ) 10 км    10/10 200 м 
[St]
-1 -2.4 90 -5  1019.2  -0.4  723  292           
09 11.02.16 120 (ЮВ) 20000 м    8/4 300 м средняя 
[St|Ac trans]
+2.1 -1.8 75 -1  1017.8  -0.7  722  289           
12 11.02.16 120 (ЮВ) 6{10}  20000 м    3/0 верхняя 
[Ci sp]
+4.5 -1.7 64 +2  1016.5  -0.7  721  286           
15 11.02.16 140 (ЮВ) 20000 м    8/0 верхняя 
[Ci fib]
-1.2 -3.8 82 -4  1018.5  0.8  722  293    +4.6       
18 11.02.16 140 (ЮВ) 20000 м    6/0 средняя, верхняя 
[Ac trans|Ci sp]
-0.9 -2.7 88 -4  1019  0.5  722  292           
21 11.02.16 140 (ЮВ) 20000 м    8/0 средняя 
[Ac trans]
-0.5 -2.1 89 -3  1018.7  -0.2  722  292           
00 12.02.16 150 (ЮВ) 20000 м    8/0 средняя 
[Ac trans]
+0.2 -1.6 88 -3  1020.1  1.5  723  291           
03 12.02.16 080 (В) 20000 м    10/4 1000 м средняя 
[Sc|Ac und]
-0.6 -2.1 90 -1  1021  0.7  724  292  -2.2         
06 12.02.16 120 (ЮВ) 20000 м    8/0 средняя, верхняя 
[Ac trans|Ci fib]
+0.5 -1.2 88 1022.5  1.6  725  292           
09 12.02.16 130 (ЮВ) 20000 м    8/0 средняя, верхняя 
[Ac trans|Ci fib]
+4.5 -0.4 70 +3  1021.9  0.2  725  287           
12 12.02.16 100 (В) 20000 м    9/0 средняя 
[Ac As]
+6 +0.1 66 +4  1021.3  -0.3  725  286           
15 12.02.16 120 (ЮВ) 20000 м    9/3 1000 м средняя 
[Sc|Ac As]
+4.1 +0.4 77 +2  1021.9  0.2  725  288    +6.1       
18 12.02.16 120 (ЮВ) 20000 м    9/0 средняя 
[Sc|Ac As]
+2.2 -0.3 84 1020.7  -1.5  724  289           
21 12.02.16 160 (Ю) 20000 м    9/3 300 м средняя 
[Sc|Ac As]
+1 -0.6 89 -2  1021  -0.1  724  291           
00 13.02.16 110 (В) 20000 м    ясно 
+0.2 -1.2 90 -2  1021.2  724  292           
03 13.02.16 150 (ЮВ) 20000 м    ясно 
+0.5 -1.4 87 -2  1020.7  -0.4  724  291  -0.2         
06 13.02.16 160 (Ю) 20000 м    8/0 средняя 
[Ac trans]
+3.5 -0.9 73 +2  1020.6  0.5  724  288           
09 13.02.16 120 (ЮВ) 20000 м    8/0 средняя 
[Ac trans]
+8.7 +0.3 56 +8  1018.3  -1.2  723  282           
12 13.02.16 090 (В) 20000 м    9/0 средняя 
[Ac trans]
+8.8 +1.7 61 +7  1016.9  -1.2  722  282           
15 13.02.16 080 (В) 20000 м    8/0 средняя 
[Ac trans]
+3.6 -0.5 75 +2  1017.4  -0.5  722  287    +9.7       
18 13.02.16 160 (Ю) 20000 м    8/0 средняя 
[Ac trans]
+2.1 -1.3 78 +1  1017  -0.7  721  289           
21 13.02.16 140 (ЮВ) 20000 м    3/0 средняя 
[Ac trans]
+2.5 -0.6 80 1015.4  -1.4  720  288           
00 14.02.16 160 (Ю) 20000 м    3/0 средняя 
[Ac trans]
+3.1 -1.4 72 +1  1014.4  -0.8  720  287           
03 14.02.16 100 (В) 20000 м    4/0 средняя 
[Ac trans]
+2.3 -2.1 73 +1  1014.3  -0.3  720  288  +1.7         
06 14.02.16 120 (ЮВ) 20000 м    6/0 средняя 
[Ac trans]
+1.7 -1.5 79 1014.9  0.5  720  288  +0.7         
09 14.02.16 110 (В) 20000 м    8/0 средняя 
[Ac trans]
+4.8 +0.4 73 +4  1014.1  0.1  720  285           
12 14.02.16 060 (СВ) 20000 м    9/0 средняя 
[Ac trans]
+7.6 +1.8 67 +7  1013.8  0.2  720  282           
15 14.02.16 100 (В) 20000 м    9/4 1000 м средняя 
[Sc|Ac trans]
+5.5 +1.7 76 +4  1015.7  1.4  721  284    +8.4       
18 14.02.16 150 (ЮВ) 20000 м    10/0 средняя 
[Ac und]
+4.3 +1.8 84 +4  1017.1  1.1  722  286           
21 14.02.16 220 (ЮЗ) 20000 м  {ливн. осадки}  10/0 средняя 
[Ac und]
+5 +1 75 +6  1017.8  0.8  722  286           
00 15.02.16 170 (Ю) 20000 м    6/0 средняя 
[Ac trans]
+5.7 -4.2 49 +7  1018.8  723  286           
03 15.02.16 310 (СЗ) 20000 м  слаб. ливневой дождь  10/5 1000 м кучево-дожд., средняя 
[Cb cap|Ac As]
+6.6 +2.3 74 +5  1020.6  1.9  725  285  +2.7    0.4     
06 15.02.16 180 (Ю) 10 км  слаб. ливневой дождь  10/6 600 м кучево-дожд., средняя 
[Cb cap|Ac und]
+6.5 +5.3 92 +5  1022.4  1.7  726  285           
09 15.02.16 160 (Ю) 20000 м  {ливн. осадки}  8/6 600 м средняя, верхняя 
[Sc|Ac As|Ci fib]
+11.6 +7.4 75 +11  1022.4  0.9  727  280           
12 15.02.16 140 (ЮВ) 20000 м  {ливн. осадки}  9/4 1000 м средняя 
[Sc|Ac trans]
+13.7 +7.3 65 +14  1022.5  0.5  727  278           
15 15.02.16 150 (ЮВ) 20000 м    8/4 600 м средняя, верхняя 
[Sc|Ac trans|Ci fib]
+11 +6.2 72 +11  1024.6  1.5  728  281    +14.5     
18 15.02.16 180 (Ю) 20000 м    8/0 средняя 
[Ac trans]
+9.4 +5.1 74 +9  1026.2  1.2  729  283           
21 15.02.16 220 (ЮЗ) 20000 м    1/0 средняя 
[Ac trans]
+8.2 +3.1 70 +8  1026.9  0.3  729  285           
00 16.02.16 180 (Ю) 20000 м    ясно 
+9.7 +3.2 64 +10  1027.1  0.5  730  283           
03 16.02.16 210 (ЮЗ) 20000 м    ясно 
+9.8 +3.3 64 +10  1027.6  0.5  730  283  +7.7         
06 16.02.16 160 (Ю) 20000 м    6/0 верхняя 
[Ci]
+12.2 +4.3 58 +13  1027.5  0.3  730  281           
09 16.02.16 240 (ЮЗ) 20000 м  слаб. ливневой дождь  10/4 600 м кучево-дожд., средняя 
[Cb cap|Ac und]
+13.9 +8.1 68 +15  1027.4  0.2  731  279           
12 16.02.16 150 (ЮВ) 20000 м  {ливн. осадки}  8/0 средняя 
[Sc diur, vesp|Ac trans]
+14.1 +6.7 61 +14  1026.6  -0.7  730  279           
15 16.02.16 190 (Ю) 20000 м    3/0 средняя 
[Ac trans]
+12.2 +5.9 65 +12  1027.3  0.4  730  281    +16.6  0.3     
18 16.02.16 260 (З) 20000 м    5/0 средняя 
[Ac trans]
+11.3 +5.6 68 +11  1028.3  0.7  731  282           
21 16.02.16 270 (З) 20000 м    3/0 средняя 
[Ac trans]
+12.8 +5.9 63 +12  1027.8  0.7  731  280           
00 17.02.16 250 (З) 7-10{12}  20000 м    10/0 средняя 
[Ac und]
+12.8 +5.5 61 +12  1027.1  -0.7  730  280           
03 17.02.16 240 (ЮЗ) 2{10}  20000 м    6/0 средняя 
[Ac trans]
+9.6 +6.1 79 +10  1028  0.3  730  283  +9.6         
06 17.02.16 240 (ЮЗ) 20000 м  в посл. час ливневой дождь  10/5 600 м кучево-дожд., средняя 
[Cb calv|Ac und]
+11.1 +8.9 86 +11  1027.6  0.1  730  281  +9.4         
09 17.02.16 280 (З) 5{10}  20000 м    10/4 1000 м кучево-дожд., средняя 
[Cb calv|Ac und]
+12.1 +7.5 73 +11  1026.3  -1.1  730  280           
12 17.02.16 320 (СЗ) 7-12{13}  20000 м    9/6 600 м кучево-дожд., средняя 
[Cb calv|Ac trans]
+9.5 +5.6 77 +8  1026.2  -0.6  729  283           
15 17.02.16 340 (С) 5{13}  4000 м  дымка  10/8 200 м кучево-дожд., средняя 
[Cb calv|Ac und]
+4.3 +2.9 91 +2  1028.4  1.1  730  289    +13.2  0.0     
18 17.02.16 350 (С) 10 км  слаб. ливневой дождь  10/5 300 м кучево-дожд., средняя 
[Cb cap|Ac und]
+1.5 -0.7 85 -2  1030.6  1.5  731  293           
21 17.02.16 330 (СЗ) 10 км  {ливн. осадки}  10/5 600 м средняя 
[Sc diur, vesp|Ac und]
+0.4 -2.7 80 -3  1030.5  -0.4  731  294           
00 18.02.16 340 (С) 20000 м  {ливн. осадки}  8/3 600 м средняя 
[Sc|Ac trans]
-2.2 -6.3 73 -5  1031.7  0.5  731  298           
03 18.02.16 310 (СЗ) 20000 м    3/0 средняя 
[Ac trans]
-4.4 -7.5 79 -6  1033  0.8  732  300  -4.4    0.0     
06 18.02.16 300 (СЗ) 20000 м    ясно 
-3.1 -7.9 69 -6  1033.3  0.5  732  299  -5.1         
09 18.02.16 290 (З) 20000 м    ясно 
+0.9 -12.5 36 -2  1031.3  -1.1  731  295           
12 18.02.16 300 (СЗ) 20000 м    ясно 
+2.8 -14.3 27 1029  -1.7  730  292           
15 18.02.16 320 (СЗ) 3{10}  20000 м    3/0 верхняя 
[Ci fib]
-0.2 -9.4 50 -2  1029.7  730  295    +3       
18 18.02.16 280 (З) 20000 м    4/0 средняя 
[Ac trans]
-2.3 -8.8 61 -5  1029.6  -0.5  730  297           
21 18.02.16 300 (СЗ) 20000 м    3/0 верхняя 
[Ci fib]
-2.9 -9 63 -5  1027.7  -1.9  728  297           
00 19.02.16 тихо ()   20000 м    ясно 
-6.2 -7.3 92 -6  1026.7  -1.6  727  300           
03 19.02.16 060 (СВ) 10 км    4/4 200 м 
[St]
-7.3 -8.5 91 -9  1025.5  -1.4  726  301  -7.6         
06 19.02.16 080 (В) 10 км    9/9 300 м 
[St]
-5.5 -7.3 87 -7  1023.7  -1.3  725  299           
09 19.02.16 090 (В) 20000 м    9/9 300 м 
[Sc]
-4.1 -7.8 75 -5  1022.1  -1.3  724  297           
12 19.02.16 090 (В) 20000 м  слаб. снег  10/8 600 м средняя 
[Sc|Ac und]
-2.6 -7.7 68 -5  1020.4  -1.2  723  295           
15 19.02.16 050 (СВ) 10 км  слаб. снег  10/10 300 м 
[Frnb|Ns]
-3.6 -5.9 84 -6  1020.8  0.2  723  296    -2.6  0.0     
18 19.02.16 040 (СВ) 20000 м  слаб. снег  10/10 300 м 
[Frnb|Ns]
-3.9 -5.3 90 -6  1020.6  -0.2  723  296           
21 19.02.16 020 (С) 4000 м  слаб. снег  10/10 200 м 
[Frnb|Ns]
-3.9 -4.9 93 -3  1020.3  -0.3  723  296           
00 20.02.16 050 (СВ) 1500 м  снег  10/10 100 м 
[Frnb|Ns]
-4.8 -5.9 92 -9  1020.4  -0.2  723  297           
03 20.02.16 030 (СВ) 10 км  слаб. снег  10/10 200 м 
[Frnb|Ns]
-6.5 -7.7 91 -10  1022.3  1.5  724  300  -6.5    равномерный
сухой снег
100% 
06 20.02.16 020 (С) 10 км  в посл. час снег  10/5 300 м средняя 
[Sc|Ac und]
-6.7 -8 90 -9  1024  1.5  725  300  -7.2         
09 20.02.16 020 (С) 20000 м    10/5 300 м средняя 
[Sc|Ac und]
-4.6 -6.7 85 -6  1023.7  0.2  725  298           
12 20.02.16 020 (С) 20000 м    9/9 600 м 
[Sc]
-3.8 -7.4 76 -6  1022.7  -0.8  725  297           
15 20.02.16 020 (С) 20000 м    9/6 600 м средняя 
[Sc|Ac trans]
-4.5 -8.2 75 -7  1022.6  -0.2  724  298    -3.6  0.2     
18 20.02.16 350 (С) 20000 м    10/5 600 м средняя 
[Sc|Ac und]
-5.1 -8.6 76 -5  1022.3  -0.4  724  298           
21 20.02.16 320 (СЗ) 20000 м    8/5 600 м средняя 
[Sc|Ac trans]
-6.1 -9.3 78 -6  1021.7  -0.8  724  299           
00 21.02.16 210 (ЮЗ) 20000 м    3/0 средняя 
[Ac trans]
-7.1 -9.9 80 -7  1021.8  -0.2  723  300           
03 21.02.16 160 (Ю) 20000 м    ясно 
-7.8 -9.9 85 -9  1021.6  -0.3  723  301  -8.8      равномерный
мокрый или
старый снег
100% 
06 21.02.16 110 (В) 20000 м    4/0 верхняя 
[Ci fib]
-5.1 -7.2 85 -8  1021  723  298           
09 21.02.16 130 (ЮВ) 20000 м    8/0 верхняя 
[Ci fib]
+1.4 -5.4 61 -1  1018.3  -1.2  722  290           
12 21.02.16 110 (В) 20000 м    8/0 средняя, верхняя 
[Ac trans|Ci sp]
+3.7 -5 53 +2  1017.2  -0.6  722  287           
15 21.02.16 100 (В) 20000 м    8/0 средняя, верхняя 
[Ac trans|Ci sp]
-0.2 -5.5 67 -2  1018.6  0.6  722  292    +4       
18 21.02.16 150 (ЮВ) 20000 м    10/4 1000 м средняя 
[Sc|Ac und]
+0.4 -3.9 73 -2  1018.6  0.1  722  291           
21 21.02.16 160 (Ю) 20000 м    10/0 средняя, верхняя 
[Ac trans|Cs]
-0 -3.7 76 -2  1018  -0.7  722  291           
00 22.02.16 140 (ЮВ) 20000 м    10/0 средняя, верхняя 
[Ac trans|Cs]
-0.4 -4 77 -2  1017.9  -0.2  722  292           
03 22.02.16 150 (ЮВ) 20000 м    10/4 1000 м средняя 
[Sc|As op]
-0.4 -4.3 75 -2  1018.4  0.5  722  292  -1.5         
06 22.02.16 330 (СЗ) 10 км  в посл. час снег  9/5 1000 м средняя 
[Sc|Ac trans]
-0.1 -2.1 86 +1  1020.4  724  292           
09 22.02.16 280 (З) 20000 м    10/4 1000 м средняя 
[Sc|Ac und]
+4.1 -1.9 65 +4  1020.3  0.7  724  288           
12 22.02.16 270 (З) 20000 м    8/8 600 м 
[Sc]
+6.1 -1.1 60 +4  1020.9  0.9  725  286           
15 22.02.16 240 (ЮЗ) 20000 м    6/0 средняя, верхняя 
[Ac trans|Ci fib]
+2 -2.4 73 +1  1023.1  1.3  726  290    +6.9  0.3     
18 22.02.16 180 (Ю) 20000 м    8/3 1000 м средняя 
[Sc|Ac trans]
+2.4 -0.9 79 +2  1024.6  1.5  727  290           
21 22.02.16 250 (З) 20000 м    3/0 средняя 
[Ac trans]
+1.2 -2.5 76 1025  -0.1  727  292           
00 23.02.16 210 (ЮЗ) 20000 м    3/0 средняя 
[Ac trans]
-0 -2.3 84 -1  1025.3  0.1  727  293           
03 23.02.16 280 (З) 20000 м    ясно 
-0.1 -2.2 86 +1  1025.3  -0.1  727  293  -0.7         
06 23.02.16 160 (Ю) 20000 м    8/0 верхняя 
[Ci]
+3.8 -0.9 71 +1  1024.3  0.1  727  289           
09 23.02.16 150 (ЮВ) 20000 м    4/0 верхняя 
[Ci fib]
+10.9 -0.5 45 +9  1021.4  -1.4  726  281           
12 23.02.16 150 (ЮВ) 7{11}  20000 м    8/0 средняя, верхняя 
[Ac trans|Ci fib]
+13.9 -2.1 33 +13  1018.1  -2.6  724  278           
15 23.02.16 120 (ЮВ) 6{12}  20000 м    4/0 средняя, верхняя 
[Ac trans|Ci fib]
+8.6 -2.7 45 +7  1018.4  -0.7  723  283    +14.2       
18 23.02.16 140 (ЮВ) 20000 м    3/0 верхняя 
[Ci sp]
+5 -3.3 55 +3  1017.3  -1.7  722  286           
21 23.02.16 140 (ЮВ) 20000 м    6/0 верхняя 
[Ci fib]
+3.2 -1.6 71 +1  1016.2  -1.4  721  287           
00 24.02.16 130 (ЮВ) 20000 м    3/0 верхняя 
[Ci fib]
+1.3 -2 79 -1  1014.6  -1.9  720  289           
03 24.02.16 080 (В) 20000 м    3/0 верхняя 
[Ci fib]
-1.4 -2.7 91 -2  1015  -0.1  719  292  -1.4         
06 24.02.16 170 (Ю) 20000 м    6/0 верхняя 
[Ci fib]
+5.1 -0.4 68 +5  1013.7  720  285  -1.9         
09 24.02.16 320 (СЗ) 20000 м    4/0 верхняя 
[Ci fib]
+12.8 +2 48 +12  1011.6  -0.5  719  276           
12 24.02.16 340 (С) 20000 м    6/0 верхняя 
[Ci fib]
+15.4 +2.1 41 +15  1009.8  -1.2  718  274           
15 24.02.16 340 (С) 20000 м    9/0 верхняя 
[Ci fib]
+11.7 +3.5 57 +13  1010.7  0.2  718  277    +15.6       
18 24.02.16 200 (Ю) 20000 м    4/0 средняя 
[Ac trans]
+7.9 +2.3 68 +8  1011.5  718  281           
21 24.02.16 220 (ЮЗ) 20000 м    3/0 средняя 
[Ac trans]
+8 +2.3 67 +7  1010.6  -0.8  718  281           
00 25.02.16 220 (ЮЗ) 20000 м    8/0 средняя 
[Ac trans]
+9.5 +3.5 66 +9  1010.4  0.1  718  279           
03 25.02.16 250 (З) 20000 м    10/0 средняя 
[Ac und]
+10.6 +2.2 56 +11  1010.2  718  278  +4.5         
06 25.02.16 220 (ЮЗ) 20000 м    10/5 1000 м средняя 
[Sc|Ac und]
+11.1 +2.5 55 +10  1010.7  0.6  718  278           
09 25.02.16 250 (З) 20000 м    10/0 средняя 
[Ac und]
+12 +2.2 51 +11  1010.4  -0.1  718  277           
12 25.02.16 270 (З) 8-11{11}  10 км  слаб. ливневой дождь  10/5 1000 м кучево-дожд., средняя 
[Cb cap|Ac und]
+9.4 +6.8 84 +7  1012.1  -0.1  719  279           
15 25.02.16 270 (З) 7-11{15}  10 км  слаб. ливневой дождь  10/6 300 м кучево-дожд., средняя 
[Cb cap|Ac und]
+8.1 +6.8 91 +6  1014.2  1.8  720  281    +12.6  0.9     
18 25.02.16 290 (З) 8-12{15}  3000 м  дымка{ливн. осадки}  10/6 100 м средняя 
[St|Ac und]
+3.7 +2.6 92 1017.6  2.3  722  287           
21 25.02.16 290 (З) 7-11{14}  10 км  {ливн. осадки}  10/6 200 м средняя 
[St|Ac und]
+1.8 +0.6 92 -2  1020.8  2.6  724  290           
00 26.02.16 320 (СЗ) 4{11}  20000 м    10/6 300 м средняя 
[St|Ac und]
+0.1 -2.2 84 -2  1022.8  1.5  725  292           
03 26.02.16 080 (В) 20000 м    10/6 600 м средняя 
[Sc|Ac und]
+0.2 -2.9 80 +1  1024.1  1.2  726  293  +0.1    0.0     
06 26.02.16 120 (ЮВ) 20000 м    9/6 300 м средняя 
[Sc|Ac trans]
+1.4 -2.2 77 -1  1024.4  0.5  727  291  +0.1         
09 26.02.16 120 (ЮВ) 20000 м    8/0 средняя 
[Ac trans]
+6.1 +0.2 66 +5  1023.1  -0.3  726  286           
12 26.02.16 120 (ЮВ) 20000 м    6/0 средняя 
[Ac trans]
+9.5 +1.6 58 +9  1021.5  -0.8  726  282           
15 26.02.16 140 (ЮВ) 20000 м    3/0 средняя 
[Ac trans]
+6.3 +1.2 70 +5  1022.4  0.9  726  286    +10.1       
18 26.02.16 120 (ЮВ) 20000 м    ясно 
+3.4 +0.5 81 +1  1023.3  0.2  726  289           
21 26.02.16 130 (ЮВ) 20000 м    ясно 
+3.6 +0.8 82 +1  1021.9  0.2  725  288           
00 27.02.16 160 (Ю) 20000 м    6/6 300 м 
[St]
+3.9 +1.9 87 +1  1021.4  -0.4  725  288           
03 27.02.16 140 (ЮВ) 6{16}  10 км    3/3 300 м 
[St]
+1.7 +0.4 91 -1  1021  -0.9  724  290  +1.7         
06 27.02.16 140 (ЮВ) 20000 м    3/0 верхняя 
[Ci fib]
+4.9 +2.1 82 +3  1019.8  -0.5  724  286  +1.3         
09 27.02.16 120 (ЮВ) 20000 м    3/0 верхняя 
[Ci fib]
+11.7 +2.9 55 +11  1017.8  -0.6  723  279           
12 27.02.16 130 (ЮВ) 20000 м    3/0 верхняя 
[Ci fib]
+13.8 +2.6 47 +13  1016.7  -0.6  723  277           
15 27.02.16 110 (В) 20000 м    8/0 верхняя 
[Ci sp]
+6.3 +1.7 72 +5  1018.1  0.1  723  284    +14.4       
18 27.02.16 170 (Ю) 20000 м    6/0 верхняя 
[Ci fib]
+4 +0.3 77 +3  1018.8  0.2  723  287           
21 27.02.16 210 (ЮЗ) 20000 м    6/0 верхняя 
[Ci fib]
+8.1 -2.3 48 +7  1017.7  -0.3  723  283           
00 28.02.16 230 (ЮЗ) 20000 м    10/0 средняя, верхняя 
[Ac trans|Cs]
+9.2 -2 45 +8  1018  0.5  723  282           
03 28.02.16 270 (З) 20000 м    8/0 верхняя 
[Ci fib]
+4.8 -3.1 57 +4  1020.6  1.6  724  287  +2.1         
06 28.02.16 270 (З) 8-12{12}  20000 м    10/4 1000 м средняя 
[Sc|Ac und]
+10.7 +4.5 65 +9  1021.6  2.1  726  281           
09 28.02.16 280 (З) 8-12{13}  20000 м    10/3 1000 м средняя 
[Sc|Ac und]
+10.4 +4.9 69 +8  1023.1  1.4  727  281           
12 28.02.16 300 (СЗ) 6{13}  20000 м    8/3 1000 м средняя 
[Sc|Ac trans]
+11.2 +6.2 71 +10  1024.3  1.3  728  281           
15 28.02.16 310 (СЗ) 10 км    9/3 300 м средняя 
[St|Ac As]
+8.1 +6.1 87 +7  1027.6  2.5  730  285    +12       
18 28.02.16 280 (З) 10 км    10/3 200 м средняя 
[St|Ac trans]
+7 +5.4 90 +6  1029.8  1.9  731  286           
21 28.02.16 280 (З) 20000 м    8/3 300 м средняя 
[St|Ac trans]
+7.4 +5.6 88 +7  1031.4  1.9  732  286           
00 29.02.16 280 (З) 5000 м  дымка  10/10 200 м 
[St]
+7.6 +6.5 93 +7  1032.4  733  286           
03 29.02.16 тихо ()   0900 м  туман  8/8 100 м 
[St]
+6.9 +6.1 95 +7  1032.9  0.4  734  287  +6         
06 29.02.16 090 (В) 1500 м  дымка{туман}  8/8 100 м 
[St]
+7.8 +7 95 +9  1034.2  1.4  735  287           
09 29.02.16 090 (В) 20000 м    8/8 300 м 
[Sc]
+10.4 +5.6 72 +11  1032.8  -0.8  734  284           
12 29.02.16 110 (В) 20000 м    6/6 600 м 
[Sc]
+13.6 +5 56 +14  1030.5  -1.6  733  280           
15 29.02.16 130 (ЮВ) 20000 м    4/0 средняя 
[Ac trans]
+9.5 +5 73 +9  1030.8  -0.4  732  284    +13.8       
18 29.02.16 130 (ЮВ) 10 км    3/0 средняя 
[Ac trans]
+5.4 +4 91 +4  1031.4  -0.3  732  289           
21 29.02.16 160 (Ю) 1800 м  дымка{туман}  10/10 100 м 
[St]
+5.6 +4.8 95 +4  1029.7  -1.6  731  288           
00 01.03.16 130 (ЮВ) 0100 м  туман  ?/?  
+3.1 +2.3 94 +2  1029  -1.2  730  290           
03 01.03.16 130 (ЮВ) 4000 м  дымка{туман}  3/3 100 м 
[St]
+2.9 +2.2 95 1028.1  -0.8  729  290  +2.2         
06 01.03.16 150 (ЮВ) 20000 м  {туман}  4/0 верхняя 
[Ci fib]
+6.1 +4.1 87 +4  1027.1  -0.3  729  287  +2.2         
09 01.03.16 130 (ЮВ) 20000 м    6/0 верхняя 
[Ci fib]
+12.4 +4.9 60 +12  1024.1  -1.7  728  280           
12 01.03.16 120 (ЮВ) 20000 м    6/0 верхняя 
[Ci fib]
+15.8 +4.5 47 +15  1020.8  -2.5  726  276           
15 01.03.16 140 (ЮВ) 6{10}  20000 м    8/0 верхняя 
[Ci fib]
+8.6 +3.2 69 +7  1020.3  -1.8  725  283    +16.1       
18 01.03.16 130 (ЮВ) 6{11}  10 км    6/0 верхняя 
[Ci fib]
+4.1 +2.5 89 +1  1019.4  -1.6  724  287           
21 01.03.16 130 (ЮВ) 2000 м  дымка  10/10 100 м 
[St]
+2.6 +1.8 94 1018.4  -1.3  723  288           
00 02.03.16 160 (Ю) 9-11{11}  4000 м  дымка{туман}  10/10 100 м 
[St]
+2.3 +1.5 94 -2  1016.1  -2.2  721  288           
03 02.03.16 140 (ЮВ) 7{12}  1500 м  дымка  10/10 100 м 
[St]
+1.2 +0.4 94 -2  1014.2  -2.2  719  288  +1.2         
06 02.03.16 120 (ЮВ) 20000 м    10/0 средняя, верхняя 
[Ac As|Cs]
+3.8 +1.7 86 +1  1014.1  0.4  720  286  +0.8         
09 02.03.16 110 (В) 20000 м    8/0 средняя 
[Ac trans]
+11.9 +1.8 50 +11  1012.1  -0.4  719  277           
12 02.03.16 110 (В) 20000 м    10/3 1000 м средняя, верхняя 
[Sc|Ac As|Ci sp]
+15.8 +2 39 +16  1009.8  -1.4  718  273           
15 02.03.16 040 (СВ) 20000 м    9/0 средняя 
[Ac trans]
+9.5 +3.9 68 +9  1010.4  -0.5  718  279    +16.9       
18 02.03.16 140 (ЮВ) 20000 м    3/0 средняя 
[Ac trans]
+5.3 +3.3 87 +5  1010.9  -0.3  718  283           
21 02.03.16 220 (ЮЗ) 20000 м    ясно 
+6.8 +2.1 72 +7  1008.6  -1.9  716  281           
00 03.03.16 060 (СВ) 20000 м    3/0 средняя 
[Ac trans]
+4.9 +1.5 79 +5  1007.9  -1  715  283           
03 03.03.16 110 (В) 0400 м  туман  ?/?  
+1.3 +0.4 94 1008  -0.6  715  287  +1.2         
Время (UTC), дата Ветер
(°,м/с) 
Видим.   Явления Облачность Т
(°С)
Тd
(°С)
f(%) Тe
(°С)
Pmin
(гПа)
dP
(гПа)
Po
(мм)
O2
(г/м3)
Тmin Tmax R s Состояние
почвы